[[{"header":{"parameterUnit":"m.s-1","parameterCategory":2,"la1":30.2991,"la2":30.254,"lo1":-89.0895,"lo2":-89.0444,"dy":0.0017,"dx":0.0017,"nx":28,"ny":28,"refTime":"2024-08-25T09:00:00:Z","depth":"0","parameterNumber":2,"parameterNumberName":"U-component_of_CURRENTS"},"data":[0,0,0,0,0,0,0,0,0,0,0,0,0,0,0,0,0,0,0,0,0,0,0,0,0,0,0,0,0,0,0,0,0,0,0,0,0,0,0,0,0,0,0,0,0,0,0,0,0,0,0,0,0,0,0,0,0,0,0.2544,0.2544,0,0.252,0.252,0.252,0.2551,0.2552,0.2553,0.2554,0.2588,0.2588,0.2588,0,0,0,0,0,0,0,0,0,0,0,0,0,0.2678,0.2675,0.2544,0.2544,0.2543,0.252,0.252,0.252,0.2551,0.2552,0.2553,0.2554,0.2588,0.2588,0.2588,0,0,0,0,0,0,0,0,0,0,0,0,0,0.2637,0.2675,0.2544,0.2553,0.2554,0.252,0.252,0.252,0.2551,0.2552,0.2554,0.2555,0.2588,0.2588,0.2588,0.2565,0,0,0.2589,0.2589,0,0,0,0,0,0,0,0,0.2639,0.2632,0.2553,0.2553,0.2553,0.2537,0.2579,0.2537,0.2551,0.2556,0.2554,0.2555,0.2573,0.2574,0.2571,0.2566,0.2568,0.2589,0.2589,0.2589,0.2589,0,0,0,0,0,0,0,0.2642,0.2634,0.2538,0.2552,0.2552,0.2579,0.2574,0.2572,0.2562,0.2555,0.2557,0.2548,0.2574,0.2571,0.2572,0.2568,0.2589,0.2589,0.2589,0.2589,0.2603,0.2603,0,0,0,0,0,0,0.2632,0.2635,0.2539,0.2537,0.2596,0.2575,0.257,0.2544,0.256,0.2562,0.2547,0.255,0.257,0.2572,0.2574,0.2585,0.2589,0.2589,0.2589,0.2603,0.2603,0.2603,0,0,0,0,0,0,0.2635,0.2623,0.254,0.2585,0.2576,0.2571,0.2541,0.2542,0.2543,0.2553,0.2557,0.2547,0.2571,0.2573,0.2585,0.2585,0.2589,0.2589,0.2603,0.2603,0.2603,0.2584,0,0,0,0,0,0,0.2639,0.2624,0.2608,0.2583,0.2572,0.2518,0.254,0.2541,0.2534,0.2538,0.2554,0.2558,0.2572,0.2585,0.2586,0.2586,0.2589,0.2602,0.2603,0.2603,0.2584,0.2583,0.2583,0,0,0,0,0,0.2643,0.2612,0.2607,0.2596,0.2548,0.2517,0.2514,0.2519,0.2533,0.2526,0.255,0.2558,0.2589,0.2585,0.2586,0.2586,0.2602,0.2603,0.2603,0.2584,0.2583,0.2583,0,0,0,0,0,0,0.2654,0.2611,0.2605,0.256,0.254,0.2521,0.2509,0.2515,0.2525,0.2533,0.2555,0.256,0.2569,0.258,0.2576,0.2594,0.2598,0.2599,0.2584,0.2583,0.2583,0.2575,0.259,0,0,0,0,0,0.2647,0.2617,0.2583,0.2547,0.2532,0.2521,0.2511,0.2512,0.2513,0.2518,0.2533,0.2553,0.2569,0.2579,0.2587,0.2592,0.2603,0.2596,0.2595,0.2595,0.259,0.2608,0.2608,0.2605,0.2605,0.2605,0,0,0.2641,0.2613,0.2596,0.2549,0.2531,0.2511,0.2519,0.2495,0.2496,0.2519,0.253,0.2543,0.2568,0.2579,0.2585,0.2591,0.2602,0.2596,0.2595,0.259,0.2608,0.2608,0.2608,0.2606,0.2606,0.2606,0,0,0.2619,0.2584,0.256,0.2538,0.2506,0.2499,0.2491,0.2472,0.2483,0.2488,0.2511,0.2525,0.2547,0.2564,0.2579,0.2577,0.2592,0.2585,0.258,0.2597,0.2597,0.2597,0.2611,0.2613,0.2591,0.2591,0.2591,0,0.2621,0.2575,0.2549,0.2521,0.2505,0.2493,0.2473,0.2474,0.2471,0.2481,0.2493,0.2526,0.2541,0.2563,0.2568,0.2574,0.2588,0.2579,0.2595,0.2595,0.2596,0.261,0.2612,0.259,0.259,0.259,0.259,0,0.2584,0.2551,0.2529,0.2495,0.2478,0.2451,0.2443,0.2442,0.2456,0.2465,0.2484,0.2505,0.2529,0.2537,0.2555,0.2568,0.2577,0.2586,0.2594,0.2595,0.261,0.2613,0.2589,0.2589,0.2589,0.259,0,0,0.2588,0.252,0.2516,0.2495,0.2462,0.2442,0.2441,0.2438,0.2448,0.2457,0.2476,0.2498,0.2508,0.2525,0.2544,0.256,0.2575,0.2576,0.2578,0.2585,0.2615,0.2678,0.2687,0.259,0.259,0.259,0.2624,0,0.2574,0.252,0.2497,0.246,0.243,0.2421,0.2425,0.2426,0.2441,0.2457,0.2479,0.2501,0.2506,0.2524,0.2536,0.2565,0.2581,0.2565,0.2617,0.2619,0.2671,0.2692,0.2619,0.2648,0.2626,0.2627,0.2627,0,0.2554,0.2519,0.2479,0.2439,0.2428,0.2418,0.2419,0.2419,0.2439,0.2456,0.2473,0.2493,0.2514,0.2524,0.2561,0.2553,0.258,0.2601,0.2603,0.267,0.2687,0.2644,0.2653,0.2405,0.2631,0.2631,0.263,0,0.2568,0.251,0.2481,0.2463,0.2422,0.2421,0.2411,0.2422,0.2432,0.2456,0.2471,0.2494,0.2513,0.2542,0.2581,0.2576,0.2628,0.2626,0.2706,0.271,0.2662,0.2663,0.2432,0.2655,0.2655,0.2654,0.2654,0,0.2558,0.2535,0.2484,0.2465,0.2451,0.2421,0.2425,0.2427,0.2438,0.2457,0.2469,0.25,0.2519,0.2553,0.2585,0.2658,0.2631,0.271,0.2728,0.2655,0.2655,0.2451,0.2391,0.2656,0.2655,0.2655,0.2655,0,0.2571,0.2537,0.2503,0.2461,0.2453,0.2445,0.2429,0.2433,0.244,0.2467,0.2476,0.2504,0.2565,0.2592,0.2647,0.2673,0.2638,0.2763,0.268,0.2689,0.2558,0.2504,0.24,0.2337,0.286,0.2862,0.2863,0,0.2565,0.2544,0.2508,0.2497,0.2479,0.2461,0.2457,0.2447,0.2456,0.2484,0.2503,0.2557,0.2619,0.2712,0.2783,0.2857,0.2687,0.2805,0.2791,0.2541,0.2492,0.2417,0.2364,0.2707,0.2707,0.2707,0.2707,0,0.2552,0.2549,0.2521,0.2504,0.2494,0.248,0.2471,0.2477,0.2479,0.2503,0.2549,0.2599,0.272,0.2751,0.2843,0.2895,0.2629,0.2816,0.2555,0.2364,0.2267,0.2217,0.2684,0.2708,0.2708,0.2708,0.2708,0.2708,0.2554,0.2534,0.2506,0.2495,0.249,0.2488,0.2469,0.2476,0.2488,0.2497,0.257,0.2601,0.2625,0.2782,0.2783,0.2651,0.2721,0.2515,0.2475,0.2421,0.2338,0.2831,0.2888,0.2889,0.289,0.2891,0.2891,0,0.2525,0.2504,0.249,0.247,0.2467,0.2471,0.2465,0.2433,0.244,0.2485,0.2525,0.2491,0.2478,0.2449,0.2383,0.2241,0.2189,0.2103,0.1881,0.1856,0.2257,0.222,0.2136,0.2137,0.2137,0.2137,0.2137,0.2138,0.2508,0.2473,0.2462,0.2444,0.2437,0.2391,0.238,0.2348,0.2352,0.229,0.2247,0.2251,0.2119,0.1933,0.1696,0.1696,0.146,0.1483,0.1419,0.1555,0.1584,0.1612,0.1551,0.1328,0.1328,0.0937,0.0933,0.093]},{"header":{"parameterUnit":"m.s-1","parameterCategory":2,"la1":30.2991,"la2":30.254,"lo1":-89.0895,"lo2":-89.0444,"dy":0.0017,"dx":0.0017,"nx":28,"ny":28,"refTime":"2024-08-25T09:00:00:Z","depth":"0","parameterNumber":3,"parameterNumberName":"V-component_of_CURRENTS"},"data":[0,0,0,0,0,0,0,0,0,0,0,0,0,0,0,0,0,0,0,0,0,0,0,0,0,0,0,0,0,0,0,0,0,0,0,0,0,0,0,0,0,0,0,0,0,0,0,0,0,0,0,0,0,0,0,0,0,0,-0.0288,-0.0289,0,-0.0426,-0.0428,-0.0429,-0.0474,-0.0474,-0.0473,-0.0473,-0.0669,-0.0675,-0.068,0,0,0,0,0,0,0,0,0,0,0,0,0,-0.0117,-0.012,-0.0287,-0.0289,-0.0291,-0.0426,-0.0428,-0.0429,-0.0474,-0.0474,-0.0473,-0.0473,-0.0667,-0.0674,-0.0681,0,0,0,0,0,0,0,0,0,0,0,0,0,-0.0216,-0.0121,-0.0287,-0.0331,-0.0336,-0.0426,-0.0428,-0.043,-0.0474,-0.0474,-0.0473,-0.0472,-0.0665,-0.0673,-0.0682,-0.0748,0,0,-0.0708,-0.0711,0,0,0,0,0,0,0,0,-0.021,-0.0221,-0.0323,-0.0328,-0.0334,-0.0434,-0.044,-0.054,-0.0474,-0.042,-0.0473,-0.0472,-0.0597,-0.0611,-0.0636,-0.0757,-0.0766,-0.0708,-0.0714,-0.0717,-0.072,0,0,0,0,0,0,0,-0.0203,-0.0216,-0.0341,-0.0325,-0.0332,-0.0363,-0.0376,-0.0459,-0.0511,-0.0425,-0.0429,-0.0447,-0.0601,-0.0627,-0.0641,-0.0769,-0.0708,-0.0716,-0.0721,-0.0724,-0.0952,-0.0953,0,0,0,0,0,0,-0.0187,-0.021,-0.0336,-0.0345,-0.0271,-0.0367,-0.0381,-0.0401,-0.0509,-0.0525,-0.0448,-0.0449,-0.0613,-0.0631,-0.0648,-0.0732,-0.0717,-0.0725,-0.073,-0.0951,-0.0952,-0.0953,0,0,0,0,0,0,-0.0183,-0.0197,-0.0331,-0.0281,-0.0301,-0.037,-0.0393,-0.0404,-0.0434,-0.0526,-0.0542,-0.0466,-0.0613,-0.0636,-0.0721,-0.0739,-0.0729,-0.0737,-0.095,-0.0951,-0.0953,-0.09,0,0,0,0,0,0,-0.0178,-0.0195,-0.0192,-0.0281,-0.0303,-0.038,-0.0394,-0.0408,-0.0447,-0.045,-0.0548,-0.0564,-0.0615,-0.0707,-0.0729,-0.0751,-0.0743,-0.0949,-0.0951,-0.0952,-0.09,-0.0899,-0.0898,0,0,0,0,0,-0.0171,-0.0166,-0.0191,-0.0206,-0.0301,-0.038,-0.0395,-0.044,-0.0448,-0.0463,-0.0527,-0.0561,-0.0734,-0.0716,-0.0741,-0.0765,-0.0948,-0.095,-0.0952,-0.0901,-0.09,-0.0898,0,0,0,0,0,0,-0.0086,-0.0173,-0.0202,-0.0222,-0.0297,-0.0388,-0.0399,-0.0442,-0.0504,-0.0507,-0.0583,-0.0606,-0.0681,-0.0736,-0.0713,-0.0835,-0.0844,-0.0851,-0.0796,-0.0796,-0.0795,-0.0774,-0.075,0,0,0,0,0,-0.0069,-0.0087,-0.0187,-0.0202,-0.0237,-0.0321,-0.0354,-0.04,-0.0472,-0.0498,-0.0568,-0.0642,-0.0712,-0.0761,-0.0828,-0.0909,-0.0919,-0.0938,-0.0937,-0.0936,-0.0936,-0.0956,-0.0955,-0.096,-0.096,-0.096,0,0,-0.004,-0.0089,-0.0099,-0.0185,-0.0241,-0.0304,-0.0338,-0.0396,-0.0448,-0.0514,-0.0587,-0.0642,-0.073,-0.0805,-0.0845,-0.0855,-0.0938,-0.0939,-0.0937,-0.0938,-0.0958,-0.0957,-0.0956,-0.0962,-0.0961,-0.0961,0,0,-0.0009,-0.0039,-0.0058,-0.012,-0.0212,-0.0277,-0.0295,-0.0399,-0.0436,-0.0522,-0.0572,-0.0633,-0.0755,-0.0812,-0.0858,-0.0898,-0.0924,-0.0927,-0.0919,-0.0938,-0.0937,-0.0936,-0.0928,-0.0927,-0.0935,-0.0935,-0.0935,0,0.0024,-0.002,-0.0075,-0.0123,-0.0175,-0.0265,-0.0321,-0.0379,-0.0495,-0.0528,-0.0536,-0.0688,-0.0754,-0.0846,-0.0855,-0.0895,-0.09,-0.0912,-0.0933,-0.0933,-0.0933,-0.0925,-0.0924,-0.0933,-0.0933,-0.0933,-0.0933,0,0.0018,-0.0019,-0.0035,-0.013,-0.0188,-0.0248,-0.035,-0.0401,-0.0455,-0.0517,-0.0601,-0.0682,-0.0766,-0.08,-0.0845,-0.0896,-0.0895,-0.0917,-0.0926,-0.0929,-0.0921,-0.0921,-0.093,-0.093,-0.0931,-0.0932,0,0,0.0058,-0.0023,-0.0036,-0.0071,-0.0203,-0.025,-0.033,-0.0432,-0.0467,-0.0556,-0.0602,-0.0713,-0.0738,-0.0792,-0.0853,-0.0882,-0.0879,-0.09,-0.0903,-0.0873,-0.0899,-0.0834,-0.0828,-0.0902,-0.0902,-0.0902,-0.0884,0,0.0048,0.0003,-0.0063,-0.0134,-0.0178,-0.0277,-0.0341,-0.0431,-0.05,-0.0558,-0.0634,-0.0695,-0.0744,-0.0771,-0.0811,-0.0867,-0.0882,-0.0881,-0.0918,-0.0919,-0.0846,-0.0828,-0.0671,-0.0636,-0.0884,-0.0884,-0.0884,0,0.0024,0.0003,-0.0042,-0.0127,-0.0158,-0.0209,-0.031,-0.0381,-0.0481,-0.0527,-0.0597,-0.0656,-0.0728,-0.0749,-0.083,-0.0827,-0.0855,-0.0888,-0.0888,-0.0848,-0.0855,-0.0681,-0.0628,-0.065,-0.0885,-0.0885,-0.0885,0,0.0075,-0.0005,-0.0023,-0.0057,-0.0158,-0.0187,-0.0247,-0.0355,-0.0402,-0.049,-0.0512,-0.0617,-0.0645,-0.0713,-0.0784,-0.0806,-0.0845,-0.0882,-0.0848,-0.0843,-0.0727,-0.0711,-0.0682,-0.0915,-0.0915,-0.0916,-0.0916,0,0.0068,0.0044,0.0019,0.0008,-0.0018,-0.0113,-0.0158,-0.023,-0.0318,-0.0354,-0.047,-0.0498,-0.0634,-0.0684,-0.0756,-0.0786,-0.0817,-0.0832,-0.0834,-0.0703,-0.0686,-0.0716,-0.0782,-0.0915,-0.0915,-0.0915,-0.0915,0,0.0104,0.0081,0.0068,0.0021,0.0008,-0.0001,-0.0083,-0.0117,-0.02,-0.0244,-0.0263,-0.0392,-0.0453,-0.0572,-0.067,-0.0722,-0.076,-0.0777,-0.06,-0.0581,-0.0576,-0.0645,-0.0652,-0.066,-0.0737,-0.0736,-0.0734,0,0.0117,0.0126,0.0121,0.0125,0.0107,0.0085,0.0055,-0.004,-0.0074,-0.0169,-0.0177,-0.0253,-0.0276,-0.039,-0.0508,-0.0596,-0.0672,-0.051,-0.0533,-0.0537,-0.0617,-0.0674,-0.0686,-0.0352,-0.0348,-0.0344,-0.0341,0,0.0153,0.0167,0.017,0.019,0.0186,0.0168,0.0134,0.0132,0.0027,0.0028,0.0014,0.0005,-0.0112,-0.0125,-0.0259,-0.0328,-0.0481,-0.0438,-0.0488,-0.0346,-0.036,-0.0379,-0.0401,-0.0309,-0.0312,-0.0314,-0.0316,-0.0317,0.0194,0.0213,0.0228,0.0231,0.0234,0.0231,0.0241,0.0236,0.0244,0.0276,0.0237,0.0339,0.0267,0.0103,-0.0037,-0.0157,-0.029,-0.0151,-0.0242,-0.0304,-0.0288,-0.0228,-0.012,-0.0122,-0.0123,-0.0125,-0.0126,0,0.0229,0.0236,0.0251,0.0256,0.0262,0.0253,0.0263,0.0306,0.038,0.0518,0.0592,0.0737,0.066,0.047,0.0238,0.0097,0.0003,0.0017,-0.002,-0.0053,-0.0003,0.004,0.0246,0.0246,0.0246,0.0246,0.0246,0.0246,0.0247,0.0263,0.0255,0.0262,0.0272,0.0305,0.033,0.0446,0.0578,0.084,0.1036,0.1136,0.0998,0.055,0.0268,0.02,0.0045,0.0062,-0.0113,-0.006,-0.0083,-0.0104,-0.0075,0.0103,0.0103,-0.005,-0.0052,-0.0053]}],[{"header":{"parameterUnit":"m.s-1","parameterCategory":2,"la1":30.2991,"la2":30.254,"lo1":-89.0895,"lo2":-89.0444,"dy":0.0017,"dx":0.0017,"nx":28,"ny":28,"refTime":"2024-08-25T09:00:00:Z","depth":"2","parameterNumber":2,"parameterNumberName":"U-component_of_CURRENTS"},"data":[0,0,0,0,0,0,0,0,0,0,0,0,0,0,0,0,0,0,0,0,0,0,0,0,0,0,0,0,0,0,0,0,0,0,0,0,0,0,0,0,0,0,0,0,0,0,0,0,0,0,0,0,0,0,0,0,0,0,0.217,0.2171,0,0.2277,0.2278,0.2279,0.2373,0.2375,0.2376,0.2377,0.24,0.24,0.2399,0,0,0,0,0,0,0,0,0,0,0,0,0,0.1923,0.1927,0.2169,0.2171,0.2172,0.2277,0.2278,0.228,0.2373,0.2375,0.2376,0.2378,0.24,0.24,0.2399,0,0,0,0,0,0,0,0,0,0,0,0,0,0.2029,0.1929,0.2169,0.2233,0.224,0.2277,0.2278,0.228,0.2373,0.2375,0.2377,0.2378,0.24,0.24,0.2399,0.2357,0,0,0.2396,0.2396,0,0,0,0,0,0,0,0,0.2023,0.2038,0.2222,0.2229,0.2236,0.2315,0.22,0.2302,0.2372,0.2321,0.2377,0.2379,0.2363,0.2366,0.2381,0.2358,0.2359,0.2396,0.2396,0.2396,0.2395,0,0,0,0,0,0,0,0.2015,0.2033,0.2211,0.2224,0.2232,0.2214,0.2232,0.2219,0.2327,0.2325,0.2333,0.2347,0.2367,0.2382,0.2382,0.236,0.2396,0.2396,0.2395,0.2395,0.2424,0.2425,0,0,0,0,0,0,0.2011,0.2027,0.2207,0.2214,0.2134,0.2218,0.2238,0.2287,0.233,0.2339,0.2345,0.2351,0.2382,0.2383,0.2383,0.244,0.2396,0.2395,0.2394,0.2423,0.2424,0.2425,0,0,0,0,0,0,0.2005,0.2027,0.2203,0.2121,0.2143,0.2221,0.2274,0.2288,0.2335,0.2346,0.2354,0.2383,0.2383,0.2384,0.2405,0.2438,0.2395,0.2394,0.2421,0.2423,0.2425,0.2487,0,0,0,0,0,0,0.1998,0.2025,0.2058,0.2123,0.2147,0.2224,0.2273,0.2289,0.234,0.2349,0.2379,0.2383,0.2385,0.2407,0.2404,0.2436,0.2393,0.2419,0.2422,0.2424,0.2483,0.249,0.2497,0,0,0,0,0,0.199,0.202,0.206,0.2082,0.2192,0.2224,0.2234,0.2293,0.234,0.2346,0.2389,0.2383,0.242,0.2406,0.2404,0.2436,0.2418,0.2421,0.2424,0.248,0.2489,0.2496,0,0,0,0,0,0,0.1917,0.2035,0.208,0.2144,0.2183,0.224,0.2262,0.2304,0.2345,0.2371,0.2388,0.2393,0.2426,0.2416,0.2401,0.2452,0.2422,0.2424,0.2465,0.2473,0.248,0.2478,0.2393,0,0,0,0,0,0.192,0.1988,0.2066,0.2113,0.2143,0.2209,0.2235,0.2276,0.232,0.2345,0.2374,0.2406,0.2428,0.2441,0.2448,0.2463,0.2451,0.2486,0.2493,0.2498,0.2496,0.2514,0.2522,0.2435,0.2434,0.2434,0,0,0.1897,0.1976,0.2009,0.2102,0.2151,0.218,0.223,0.2277,0.2313,0.2334,0.2397,0.2423,0.2437,0.247,0.2484,0.2471,0.2516,0.2502,0.2507,0.2501,0.2517,0.2526,0.2533,0.2436,0.2436,0.2436,0,0,0.1873,0.1967,0.201,0.2058,0.2139,0.2169,0.2188,0.2264,0.2318,0.2369,0.2407,0.2454,0.2485,0.2509,0.2523,0.2564,0.255,0.2576,0.2611,0.263,0.2637,0.2643,0.2635,0.264,0.2583,0.2583,0.2583,0,0.1849,0.193,0.2012,0.2063,0.2113,0.2167,0.2206,0.2246,0.2319,0.2373,0.2396,0.2492,0.2504,0.2554,0.2585,0.2579,0.2581,0.2581,0.2639,0.2644,0.265,0.264,0.2645,0.2586,0.2586,0.2586,0.2585,0,0.1842,0.1927,0.1952,0.2052,0.2096,0.2137,0.2211,0.2261,0.2338,0.2393,0.2485,0.2519,0.258,0.2598,0.261,0.2663,0.2649,0.2643,0.2617,0.2662,0.2649,0.2653,0.2591,0.259,0.2589,0.2588,0,0,0.1779,0.1924,0.1942,0.2007,0.2114,0.2145,0.2215,0.2297,0.2362,0.2437,0.2527,0.2591,0.2636,0.2653,0.2677,0.2701,0.2746,0.27,0.27,0.269,0.2778,0.2702,0.2698,0.2762,0.2763,0.2764,0.2753,0,0.1766,0.1844,0.1935,0.2012,0.2067,0.2171,0.2234,0.2319,0.24,0.2482,0.2556,0.2626,0.2646,0.2693,0.2725,0.2743,0.276,0.2749,0.2737,0.2736,0.2662,0.2702,0.2437,0.24,0.2756,0.2757,0.2757,0,0.1753,0.1818,0.1889,0.2049,0.2087,0.2139,0.2277,0.2343,0.2461,0.2539,0.2624,0.2668,0.2732,0.2736,0.2787,0.2785,0.2789,0.2792,0.2791,0.2699,0.2667,0.2413,0.2393,0.2763,0.2762,0.2762,0.2761,0,0.1673,0.1809,0.1866,0.1917,0.2069,0.2154,0.2239,0.2371,0.2449,0.2569,0.2624,0.2705,0.2753,0.2779,0.2808,0.2805,0.2844,0.2831,0.2756,0.2749,0.2507,0.2477,0.2851,0.2851,0.2851,0.2851,0.2851,0,0.1654,0.1717,0.1842,0.1884,0.1988,0.2123,0.2247,0.2347,0.2477,0.2558,0.2647,0.2699,0.2771,0.2804,0.2816,0.28,0.285,0.2761,0.2747,0.2521,0.2494,0.2794,0.2788,0.285,0.285,0.2851,0.2851,0,0.1604,0.1666,0.1755,0.1907,0.1965,0.2051,0.2254,0.2323,0.2455,0.2555,0.2591,0.2701,0.277,0.2813,0.2853,0.2797,0.2792,0.277,0.2492,0.2446,0.2677,0.2674,0.2671,0.2668,0.2666,0.2664,0.2662,0,0.1606,0.1634,0.1755,0.1803,0.1896,0.2035,0.2127,0.2299,0.2369,0.2546,0.2571,0.2679,0.2702,0.2727,0.2691,0.2668,0.278,0.2388,0.2331,0.2674,0.2661,0.2662,0.2662,0.2028,0.2021,0.2016,0.2012,0,0.1624,0.1646,0.1692,0.1767,0.1865,0.1959,0.2105,0.2137,0.2322,0.238,0.2459,0.2484,0.2553,0.24,0.2387,0.235,0.2371,0.2277,0.2702,0.2129,0.2071,0.2058,0.2079,0.1963,0.1968,0.1972,0.1974,0.1976,0.1641,0.1647,0.1675,0.1748,0.1818,0.1855,0.1888,0.1975,0.2025,0.2053,0.2209,0.2141,0.2145,0.1978,0.1949,0.1956,0.2128,0.198,0.1995,0.2016,0.1958,0.1902,0.1749,0.1752,0.1755,0.1758,0.176,0,0.1655,0.1636,0.1673,0.1697,0.1681,0.178,0.1843,0.1795,0.1756,0.1778,0.1783,0.1562,0.1433,0.1535,0.144,0.1435,0.1422,0.1401,0.1341,0.1387,0.1429,0.1342,0.0969,0.0967,0.0965,0.0964,0,0,0.1653,0.1623,0.1599,0.1542,0.156,0.1517,0.1511,0.1437,0.1406,0.1268,0.1197,0.1212,0.1331,0.105,0.1062,0.1003,0.1187,0.0966,0.1585,0.1551,0.1591,0.1735,0.1649,0,0,0,0,0]},{"header":{"parameterUnit":"m.s-1","parameterCategory":2,"la1":30.2991,"la2":30.254,"lo1":-89.0895,"lo2":-89.0444,"dy":0.0017,"dx":0.0017,"nx":28,"ny":28,"refTime":"2024-08-25T09:00:00:Z","depth":"2","parameterNumber":3,"parameterNumberName":"V-component_of_CURRENTS"},"data":[0,0,0,0,0,0,0,0,0,0,0,0,0,0,0,0,0,0,0,0,0,0,0,0,0,0,0,0,0,0,0,0,0,0,0,0,0,0,0,0,0,0,0,0,0,0,0,0,0,0,0,0,0,0,0,0,0,0,0.0549,0.0548,0,0.0418,0.0416,0.0414,0.0293,0.0292,0.0291,0.029,0.0088,0.0083,0.0079,0,0,0,0,0,0,0,0,0,0,0,0,0,0.0596,0.0596,0.0549,0.0548,0.0546,0.0418,0.0416,0.0414,0.0294,0.0292,0.0291,0.0289,0.0089,0.0084,0.0079,0,0,0,0,0,0,0,0,0,0,0,0,0,0.0529,0.0596,0.0549,0.0473,0.0465,0.0418,0.0416,0.0413,0.0294,0.0292,0.029,0.0288,0.0091,0.0084,0.0078,0.0076,0,0,0.0059,0.0056,0,0,0,0,0,0,0,0,0.0533,0.0527,0.0485,0.0478,0.0469,0.0372,0.0358,0.0298,0.0294,0.0356,0.029,0.0287,0.0179,0.0166,0.0142,0.0067,0.0058,0.0058,0.0054,0.0052,0.005,0,0,0,0,0,0,0,0.0538,0.0531,0.0494,0.0484,0.0474,0.0411,0.04,0.0346,0.0276,0.035,0.0342,0.0332,0.0174,0.0149,0.0136,0.0055,0.0058,0.0053,0.0049,0.0046,-0.0101,-0.0101,0,0,0,0,0,0,0.0567,0.0537,0.0499,0.0491,0.05,0.0412,0.04,0.0403,0.0278,0.0259,0.0334,0.0327,0.016,0.0144,0.0129,0.0071,0.0052,0.0046,0.0042,-0.0101,-0.0101,-0.0101,0,0,0,0,0,0,0.0569,0.0565,0.0504,0.0511,0.0499,0.0414,0.0418,0.0402,0.0355,0.0267,0.0245,0.0303,0.0158,0.0138,0.0069,0.0064,0.0043,0.0037,-0.0101,-0.0101,-0.0101,-0.0013,0,0,0,0,0,0,0.0571,0.0567,0.0567,0.0514,0.05,0.0472,0.042,0.04,0.0355,0.0344,0.0234,0.0214,0.0155,0.0079,0.0063,0.0055,0.0032,-0.0101,-0.0101,-0.0101,-0.0016,-0.001,-0.0005,0,0,0,0,0,0.0573,0.0585,0.0568,0.0562,0.0508,0.0472,0.0459,0.0389,0.0355,0.0339,0.0265,0.0216,0.0066,0.0074,0.0055,0.0045,-0.0101,-0.0101,-0.0101,-0.0018,-0.0011,-0.0005,0,0,0,0,0,0,0.0592,0.0573,0.0552,0.0554,0.0515,0.0452,0.0429,0.0389,0.032,0.0298,0.0216,0.0192,0.0134,0.0078,0.009,0.0002,-0.0026,-0.003,0.0044,0.0049,0.0055,0.0077,0.0027,0,0,0,0,0,0.0605,0.0615,0.0575,0.0573,0.0557,0.0493,0.0465,0.0421,0.0361,0.0326,0.0253,0.0176,0.0123,0.0077,0.002,-0.003,-0.0042,-0.005,-0.0044,-0.0039,-0.0034,-0.0042,-0.0035,-0.0102,-0.0102,-0.0102,0,0,0.061,0.0603,0.0604,0.0579,0.054,0.0529,0.047,0.043,0.0412,0.0317,0.0258,0.0194,0.0117,0.0064,0.0032,0.0011,-0.0024,-0.004,-0.0035,-0.0033,-0.0041,-0.0034,-0.0028,-0.0102,-0.0102,-0.0102,0,0,0.0634,0.0621,0.0634,0.0614,0.057,0.0539,0.0532,0.0464,0.0419,0.0364,0.03,0.0242,0.0137,0.0093,0.0058,0.0059,0.0014,0.0023,0.0054,0.0048,0.0054,0.0059,0.0073,0.0079,0.0015,0.0015,0.0015,0,0.0627,0.0657,0.0627,0.0633,0.0619,0.0553,0.0553,0.0512,0.0427,0.0402,0.0352,0.0229,0.0161,0.0122,0.0108,0.0074,0.0061,0.0041,0.0058,0.0063,0.0067,0.0079,0.0084,0.0019,0.0019,0.0018,0.0018,0,0.0671,0.0681,0.0685,0.0684,0.0662,0.0652,0.0603,0.057,0.051,0.0465,0.0398,0.0305,0.0227,0.02,0.0144,0.013,0.0112,0.008,0.0052,0.0079,0.009,0.0094,0.0025,0.0024,0.0022,0.0021,0,0,0.0675,0.071,0.0709,0.0721,0.0689,0.0679,0.0661,0.063,0.0618,0.0526,0.0499,0.0401,0.0333,0.0288,0.0214,0.0195,0.0212,0.0137,0.0135,0.0169,0.0207,0.0201,0.0205,0.0175,0.0176,0.0176,0.0213,0,0.0705,0.0758,0.0755,0.078,0.0794,0.0748,0.0742,0.0702,0.0645,0.0602,0.0515,0.0444,0.0372,0.0309,0.0289,0.022,0.0221,0.0206,0.0159,0.0158,0.0164,0.0208,0.0202,0.0233,0.0216,0.0217,0.0217,0,0.0737,0.0776,0.0821,0.0843,0.084,0.084,0.082,0.0796,0.0738,0.068,0.0608,0.0522,0.0456,0.0388,0.0327,0.0312,0.0268,0.0231,0.0231,0.0196,0.0159,0.0195,0.024,0.0223,0.0223,0.0222,0.0222,0,0.0765,0.0811,0.086,0.0866,0.0881,0.0878,0.0863,0.0818,0.0789,0.0707,0.0659,0.059,0.0501,0.0464,0.0351,0.0334,0.0303,0.0276,0.0251,0.0251,0.0222,0.0218,0.0267,0.0267,0.0267,0.0267,0.0267,0,0.0797,0.0833,0.0881,0.0901,0.0944,0.0913,0.0917,0.0884,0.0824,0.0799,0.0679,0.0648,0.0505,0.0451,0.0395,0.0333,0.0339,0.0276,0.0262,0.0253,0.0252,0.0211,0.0203,0.0268,0.0268,0.0267,0.0267,0,0.081,0.0852,0.0905,0.094,0.0957,0.0967,0.0948,0.095,0.0863,0.0822,0.0779,0.0671,0.0597,0.0488,0.0413,0.0364,0.0326,0.0305,0.0309,0.0295,0.0279,0.0276,0.0311,0.0312,0.0312,0.0312,0.0312,0,0.083,0.0861,0.0929,0.0967,0.0982,0.1002,0.1023,0.0971,0.0962,0.0863,0.0858,0.074,0.0735,0.0622,0.0473,0.0394,0.0348,0.0321,0.0293,0.0302,0.0284,0.0281,0.0278,0.03,0.03,0.03,0.03,0,0.0849,0.0867,0.0908,0.099,0.1034,0.1092,0.1104,0.1112,0.1045,0.103,0.1029,0.1026,0.0848,0.0743,0.0546,0.0489,0.0334,0.032,0.0328,0.0284,0.0292,0.0274,0.0271,0.03,0.03,0.03,0.03,0.03,0.0857,0.0879,0.0934,0.1009,0.1076,0.1163,0.1193,0.1227,0.1261,0.1212,0.122,0.1169,0.0981,0.0732,0.0573,0.0334,0.0379,0.0308,0.0308,0.0308,0.0293,0.03,0.0309,0.031,0.031,0.031,0.031,0,0.0859,0.0894,0.0955,0.1053,0.1133,0.117,0.1242,0.127,0.1344,0.1319,0.1341,0.1141,0.1021,0.0755,0.0422,0.0299,0.0269,0.0225,0.0211,0.0215,0.0217,0.0196,0.0188,0.0186,0.0185,0.0184,0,0,0.0866,0.0918,0.0949,0.1087,0.1155,0.1247,0.1292,0.1351,0.1344,0.135,0.1275,0.128,0.102,0.0748,0.0546,0.0341,0.0305,0.0303,0.0425,0.0439,0.0442,0.0299,0.0276,0,0,0,0,0]}],[{"header":{"parameterUnit":"m.s-1","parameterCategory":2,"la1":30.2991,"la2":30.254,"lo1":-89.0895,"lo2":-89.0444,"dy":0.0017,"dx":0.0017,"nx":28,"ny":28,"refTime":"2024-08-25T09:00:00:Z","depth":"4","parameterNumber":2,"parameterNumberName":"U-component_of_CURRENTS"},"data":[0,0,0,0,0,0,0,0,0,0,0,0,0,0,0,0,0,0,0,0,0,0,0,0,0,0,0,0,0,0,0,0,0,0,0,0,0,0,0,0,0,0,0,0,0,0,0,0,0,0,0,0,0,0,0,0,0,0,0.0387,0.0387,0,0.0336,0.0335,0.0334,0.0265,0.0264,0.0263,0.0262,0.0247,0.0247,0.0247,0,0,0,0,0,0,0,0,0,0,0,0,0,0.0425,0.0424,0.0387,0.0387,0.0386,0.0336,0.0335,0.0334,0.0265,0.0264,0.0263,0.0262,0.0247,0.0247,0.0247,0,0,0,0,0,0,0,0,0,0,0,0,0,0.0391,0.0424,0.0387,0.0348,0.0344,0.0336,0.0335,0.0334,0.0265,0.0264,0.0262,0.0261,0.0246,0.0247,0.0248,0.0277,0,0,0.0249,0.025,0,0,0,0,0,0,0,0,0.0393,0.039,0.0354,0.0351,0.0347,0.0308,0.0343,0.0318,0.0265,0.0292,0.0262,0.0261,0.0274,0.0272,0.026,0.0277,0.0276,0.0249,0.025,0.025,0.025,0,0,0,0,0,0,0,0.0396,0.0392,0.0363,0.0354,0.0349,0.0334,0.0327,0.0337,0.0289,0.0289,0.0285,0.0285,0.0271,0.026,0.0259,0.0276,0.0249,0.025,0.025,0.0251,0.0344,0.0346,0,0,0,0,0,0,0.041,0.0394,0.0365,0.0362,0.0371,0.0334,0.0327,0.0319,0.0288,0.0282,0.0286,0.0282,0.0259,0.0259,0.0259,0.0294,0.025,0.0251,0.0251,0.0342,0.0345,0.0347,0,0,0,0,0,0,0.0411,0.0408,0.0367,0.038,0.0374,0.0335,0.0327,0.0319,0.0325,0.0285,0.028,0.0302,0.0258,0.0258,0.0262,0.0293,0.0251,0.0251,0.034,0.0343,0.0346,0.0365,0,0,0,0,0,0,0.0412,0.0408,0.0412,0.0381,0.0374,0.0371,0.0329,0.0319,0.0327,0.0321,0.0298,0.0293,0.0257,0.0261,0.0263,0.0293,0.0252,0.0337,0.0341,0.0345,0.0362,0.0369,0.0375,0,0,0,0,0,0.0413,0.0415,0.0412,0.0409,0.0378,0.0373,0.0368,0.0333,0.033,0.0334,0.0308,0.0295,0.0289,0.0262,0.0264,0.0296,0.0335,0.034,0.0345,0.0359,0.0367,0.0374,0,0,0,0,0,0,0.044,0.0408,0.0403,0.0398,0.0395,0.0362,0.0362,0.0358,0.0344,0.034,0.0308,0.0301,0.032,0.0318,0.029,0.034,0.0318,0.0323,0.0329,0.0336,0.0343,0.0385,0.0252,0,0,0,0,0,0.0451,0.0434,0.0422,0.0421,0.0423,0.0407,0.0405,0.039,0.0373,0.0365,0.0348,0.0343,0.0343,0.0344,0.0341,0.0368,0.0388,0.0398,0.0404,0.0409,0.0449,0.0473,0.0484,0.0363,0.0363,0.0363,0,0,0.0465,0.0443,0.0438,0.0425,0.0417,0.0426,0.0401,0.0406,0.0411,0.037,0.0373,0.0364,0.0356,0.0366,0.0379,0.0366,0.0457,0.0415,0.0419,0.0457,0.0479,0.049,0.05,0.0366,0.0366,0.0365,0,0,0.0475,0.0467,0.0459,0.0459,0.0456,0.0452,0.0468,0.0456,0.0446,0.0461,0.0426,0.0445,0.0446,0.0436,0.0436,0.0493,0.0488,0.0495,0.0558,0.0579,0.0588,0.0597,0.0642,0.0654,0.0498,0.0498,0.0498,0,0.0503,0.0478,0.0462,0.0461,0.0467,0.0475,0.0489,0.0487,0.0477,0.048,0.0472,0.05,0.0488,0.0512,0.0521,0.0509,0.0521,0.0516,0.0585,0.0594,0.0603,0.0646,0.0659,0.0499,0.0499,0.0499,0.0499,0,0.0503,0.0494,0.0495,0.0492,0.0504,0.0517,0.0524,0.0544,0.0557,0.055,0.0587,0.0579,0.0603,0.0601,0.0577,0.0635,0.0625,0.0582,0.0557,0.0615,0.0658,0.0672,0.0501,0.0501,0.05,0.05,0,0,0.0548,0.0504,0.0509,0.0503,0.0522,0.0532,0.0565,0.0588,0.0619,0.0633,0.0674,0.0691,0.0704,0.0711,0.0692,0.0718,0.0783,0.0683,0.0683,0.0716,0.0847,0.0752,0.0758,0.0731,0.0734,0.0736,0.0852,0,0.0562,0.0547,0.0532,0.0551,0.0551,0.0574,0.06,0.0626,0.0658,0.0696,0.072,0.0755,0.0736,0.0763,0.0786,0.0779,0.082,0.0758,0.0799,0.0802,0.0699,0.0771,0.0744,0.0862,0.0865,0.0867,0.0869,0,0.0574,0.0555,0.0563,0.0556,0.0566,0.0594,0.066,0.0683,0.0737,0.0764,0.0824,0.0837,0.0901,0.0873,0.0938,0.0891,0.0896,0.0893,0.0896,0.0819,0.0733,0.0794,0.0894,0.0892,0.089,0.0888,0.0887,0,0.0595,0.0581,0.0584,0.0586,0.0594,0.0622,0.0651,0.0708,0.0727,0.0826,0.0866,0.0934,0.0979,0.1008,0.1011,0.0982,0.1066,0.1016,0.095,0.0944,0.0983,0.0972,0.1085,0.1085,0.1085,0.1084,0.1084,0,0.0602,0.0604,0.0594,0.0596,0.062,0.0635,0.0687,0.0735,0.0795,0.0821,0.0903,0.094,0.1012,0.1049,0.1053,0.1048,0.1105,0.1002,0.0974,0.099,0.0978,0.0992,0.098,0.1089,0.1088,0.1087,0.1086,0,0.061,0.06,0.0603,0.0616,0.0622,0.0651,0.0684,0.0714,0.0792,0.0844,0.088,0.0963,0.102,0.1072,0.1124,0.109,0.11,0.1079,0.1131,0.1097,0.0966,0.0954,0.1055,0.1052,0.105,0.1049,0.1048,0,0.06,0.0601,0.0622,0.0618,0.0623,0.0651,0.0661,0.0718,0.0739,0.0827,0.0838,0.0931,0.0977,0.1,0.1051,0.11,0.1065,0.1093,0.1021,0.1004,0.0967,0.0958,0.0948,0.1045,0.1044,0.1044,0.1043,0,0.0585,0.0611,0.0616,0.0611,0.0618,0.0609,0.0626,0.0632,0.0694,0.0771,0.0788,0.0832,0.0889,0.0941,0.0991,0.1002,0.1091,0.1073,0.1076,0.1009,0.0993,0.0956,0.0949,0.1036,0.1037,0.1038,0.1038,0,0.0584,0.0588,0.0598,0.0588,0.0587,0.0549,0.0567,0.0566,0.059,0.0684,0.0679,0.0772,0.0855,0.0889,0.0916,0.0946,0.0933,0.091,0.0922,0.093,0.0832,0.079,0.0779,0,0,0,0,0,0.0565,0.0553,0.0551,0.0524,0.0522,0.0513,0.0524,0.0542,0.0602,0.0593,0.0632,0.0677,0.0737,0.078,0.079,0.0872,0.0943,0.0881,0.0922,0.1,0.1008,0.0902,0,0,0,0,0,0,0.0542,0.0548,0.054,0.0468,0.0437,0.0413,0.0419,0.0457,0.0449,0.0527,0.056,0.0635,0.0703,0.0726,0.0775,0.0794,0.0806,0.0943,0.0941,0.0996,0.1002,0.1009,0.0903,0,0,0,0,0]},{"header":{"parameterUnit":"m.s-1","parameterCategory":2,"la1":30.2991,"la2":30.254,"lo1":-89.0895,"lo2":-89.0444,"dy":0.0017,"dx":0.0017,"nx":28,"ny":28,"refTime":"2024-08-25T09:00:00:Z","depth":"4","parameterNumber":3,"parameterNumberName":"V-component_of_CURRENTS"},"data":[0,0,0,0,0,0,0,0,0,0,0,0,0,0,0,0,0,0,0,0,0,0,0,0,0,0,0,0,0,0,0,0,0,0,0,0,0,0,0,0,0,0,0,0,0,0,0,0,0,0,0,0,0,0,0,0,0,0,0.0508,0.0507,0,0.0505,0.0506,0.0506,0.0511,0.0511,0.0511,0.0511,0.0529,0.053,0.053,0,0,0,0,0,0,0,0,0,0,0,0,0,0.0487,0.0488,0.0508,0.0507,0.0507,0.0505,0.0506,0.0506,0.0511,0.0511,0.0511,0.0511,0.0529,0.053,0.0531,0,0,0,0,0,0,0,0,0,0,0,0,0,0.0494,0.0488,0.0508,0.0508,0.0508,0.0505,0.0506,0.0506,0.0511,0.0511,0.0511,0.0511,0.0529,0.053,0.0531,0.0536,0,0,0.0533,0.0533,0,0,0,0,0,0,0,0,0.0493,0.0495,0.0508,0.0508,0.0508,0.0506,0.0505,0.0516,0.0511,0.0512,0.0511,0.0511,0.0522,0.0524,0.0526,0.0537,0.0538,0.0533,0.0534,0.0534,0.0534,0,0,0,0,0,0,0,0.0493,0.0494,0.0509,0.0508,0.0508,0.0498,0.0499,0.0507,0.0519,0.0512,0.0512,0.0508,0.0523,0.0525,0.0527,0.0538,0.0533,0.0534,0.0534,0.0535,0.0569,0.057,0,0,0,0,0,0,0.0491,0.0494,0.0509,0.0508,0.0498,0.0498,0.05,0.0509,0.0519,0.052,0.0508,0.0508,0.0524,0.0526,0.0527,0.0552,0.0534,0.0535,0.0535,0.0569,0.0569,0.057,0,0,0,0,0,0,0.049,0.0493,0.0509,0.0499,0.05,0.0499,0.0508,0.0509,0.0522,0.0515,0.0517,0.0523,0.0524,0.0526,0.0546,0.0552,0.0535,0.0536,0.0568,0.0569,0.0569,0.0589,0,0,0,0,0,0,0.049,0.0493,0.0505,0.0499,0.05,0.0509,0.0508,0.0508,0.0518,0.0519,0.0528,0.0529,0.0524,0.0544,0.0546,0.0552,0.0536,0.0568,0.0568,0.0569,0.0588,0.0591,0.0593,0,0,0,0,0,0.049,0.0501,0.0506,0.0507,0.0515,0.0509,0.0509,0.0508,0.0519,0.0523,0.0536,0.053,0.0551,0.0546,0.0548,0.0554,0.0567,0.0568,0.0569,0.0587,0.059,0.0593,0,0,0,0,0,0,0.0494,0.0503,0.0507,0.0521,0.0516,0.0509,0.0515,0.0518,0.0532,0.054,0.0541,0.0542,0.0561,0.0557,0.0552,0.0566,0.0556,0.0557,0.0569,0.0572,0.0574,0.0587,0.0537,0,0,0,0,0,0.0502,0.052,0.0514,0.0526,0.0527,0.0527,0.0528,0.0527,0.0533,0.054,0.0547,0.0556,0.0565,0.0569,0.0575,0.0586,0.0568,0.059,0.0592,0.0594,0.0607,0.0567,0.0566,0.0573,0.0573,0.0573,0,0,0.0503,0.0514,0.0521,0.0529,0.0531,0.0536,0.0529,0.0533,0.0543,0.054,0.0567,0.057,0.0572,0.0583,0.059,0.0581,0.0585,0.0595,0.0597,0.0609,0.0568,0.0567,0.0566,0.0574,0.0574,0.0573,0,0,0.0517,0.0529,0.0549,0.0551,0.0555,0.055,0.0555,0.0556,0.0563,0.0585,0.0584,0.0593,0.0611,0.0605,0.0607,0.0627,0.0601,0.0627,0.0646,0.0607,0.0606,0.0605,0.0586,0.0583,0.0623,0.0623,0.0623,0,0.0521,0.0547,0.0549,0.0568,0.0574,0.056,0.0575,0.0577,0.0585,0.0592,0.0598,0.0623,0.0622,0.0631,0.0637,0.0633,0.0611,0.0634,0.0609,0.0607,0.0605,0.0587,0.0583,0.0624,0.0624,0.0624,0.0624,0,0.0545,0.057,0.058,0.0604,0.0608,0.0614,0.0613,0.062,0.0632,0.0631,0.0652,0.0653,0.0666,0.0661,0.0661,0.065,0.064,0.0618,0.0599,0.0606,0.0586,0.0582,0.0626,0.0625,0.0625,0.0625,0,0,0.0545,0.0589,0.0595,0.0618,0.0629,0.0634,0.065,0.0653,0.0668,0.0675,0.0695,0.0706,0.0703,0.0706,0.0696,0.0666,0.0637,0.0642,0.0639,0.0621,0.0562,0.0539,0.0532,0.0601,0.06,0.06,0.0554,0,0.0564,0.061,0.0626,0.0662,0.068,0.0682,0.0699,0.0702,0.0705,0.0716,0.071,0.073,0.0719,0.0732,0.0699,0.0659,0.0627,0.0653,0.0562,0.056,0.0536,0.0527,0.0598,0.0551,0.055,0.0549,0.0548,0,0.0583,0.0614,0.0659,0.0702,0.0711,0.0732,0.0754,0.0769,0.0767,0.0775,0.078,0.0772,0.076,0.0741,0.0672,0.0688,0.0633,0.0593,0.0589,0.056,0.0529,0.0542,0.0541,0.0541,0.0542,0.0542,0.0543,0,0.0584,0.0637,0.0677,0.0691,0.0732,0.076,0.078,0.079,0.0808,0.0816,0.0834,0.0804,0.0812,0.0735,0.0671,0.0665,0.0581,0.0553,0.0482,0.0481,0.0506,0.0508,0.0489,0.0489,0.0489,0.0489,0.049,0,0.0595,0.0629,0.0687,0.0709,0.0757,0.0785,0.083,0.0842,0.0865,0.089,0.0874,0.0886,0.0808,0.0755,0.0676,0.0577,0.0581,0.0491,0.0463,0.0517,0.0521,0.0503,0.0505,0.0488,0.0488,0.0488,0.0489,0,0.0592,0.0629,0.0677,0.0738,0.0763,0.08,0.0869,0.0897,0.0923,0.0957,0.0969,0.0944,0.0884,0.0798,0.0678,0.0595,0.0494,0.0453,0.054,0.0518,0.0419,0.0423,0.0364,0.0363,0.0362,0.0361,0.036,0,0.0595,0.0622,0.0697,0.073,0.0766,0.0829,0.0874,0.0921,0.0952,0.0991,0.1005,0.0973,0.0943,0.0763,0.0666,0.0509,0.0478,0.042,0.04,0.0425,0.0404,0.0409,0.0415,0.0358,0.0358,0.0358,0.0357,0,0.0594,0.0625,0.0662,0.0733,0.0793,0.086,0.0929,0.0952,0.1009,0.1034,0.102,0.0947,0.0878,0.0748,0.0636,0.052,0.0452,0.0408,0.0409,0.039,0.0417,0.0399,0.0405,0.0354,0.0354,0.0355,0.0355,0,0.059,0.0613,0.0667,0.0728,0.08,0.0873,0.0913,0.0955,0.0989,0.1026,0.1016,0.0957,0.0921,0.0754,0.0649,0.0538,0.0495,0.0429,0.0428,0.0431,0.046,0.0505,0.0445,0,0,0,0,0,0.0582,0.0611,0.0661,0.0729,0.08,0.0858,0.094,0.0976,0.103,0.1012,0.1012,0.0946,0.0797,0.074,0.0622,0.0624,0.048,0.0479,0.0404,0.0333,0.0337,0.0357,0,0,0,0,0,0,0.0575,0.062,0.065,0.0722,0.0774,0.0866,0.0928,0.0971,0.0954,0.0983,0.0904,0.0885,0.0744,0.0862,0.061,0.0582,0.0508,0.0423,0.0419,0.0331,0.0335,0.0338,0.0359,0,0,0,0,0]}]]